Regional Weather Roundup
Issued by NWS

Home | Current Version | Previous Version | Graphics & Text | Print | Product List | Glossary On
Versions: 1 2 3 4 5 6 7 8 9 10 11 12 13 14 15 16 17 18 19 20 21 22 23 24 25 26 27 28 29 30 31 32 33 34 35 36 37 38 39 40 41 42 43 44 45 46 47 48 49 50
000
ASUS44 KMEG 310300
RWRTN
TENNESSEE HOURLY STATE WEATHER ROUNDUP
NATIONAL WEATHER SERVICE MEMPHIS TN
1000 PM CDT TUE AUG 30 2016

TNZ002-004-019-021-049-052-054-088>092-310400-
WEST TENNESSEE

CITY           SKY/WX    TMP DP  RH WIND       PRES   REMARKS
MEMPHIS INTL   CLEAR     86  72  62 NE9       30.00R HX  92
NWS MEMPHIS      N/A     82 N/A N/A MISG        N/A
JACKSON        PTCLDY    77  75  93 CALM      30.02R
DYERSBURG      PTCLDY    75  72  88 CALM      30.01R
UNION CITY     CLEAR     79  73  83 CALM      30.01R
PARIS          CLEAR     73  72  94 CALM      30.03S
LEXINGTON      CLEAR     75  75 100 CALM      30.01S
$$

TNZ008-025-027-028-033-062-065-066-310400-
NORTH MIDDLE TENNESSEE

CITY           SKY/WX    TMP DP  RH WIND       PRES   REMARKS
NASHVILLE      CLEAR     83  72  69 N3        30.03R
CLARKSVILLE    CLEAR     77  73  87 CALM      30.02S
COOKEVILLE     CLEAR     73  72  94 CALM      30.04S
CROSSVILLE     CLEAR     70  68  93 CALM      30.11R
$$

TNZ061-075-076-078-094-096-097-310400-
SOUTH MIDDLE TENNESSEE

CITY           SKY/WX    TMP DP  RH WIND       PRES   REMARKS
TULLAHOMA      CLEAR     73  68  83 CALM      30.06R
WINCHESTER     CLEAR     73  70  88 CALM      30.04S
MCMINNVILLE    CLEAR     73  73 100 CALM      30.05R
COLUMBIA       CLEAR    N/A N/A N/A CALM      30.02R
SHELBYVILLE    CLEAR     75  73  94 CALM      30.04R
$$

TNZ017-018-042-046-047-310400-
NORTHEAST TENNESSEE

CITY           SKY/WX    TMP DP  RH WIND       PRES   REMARKS
TRI CITIES     PTCLDY    73  69  87 CALM      30.09R
$$

TNZ012-013-036-069-073-074-310400-
CENTRAL EAST TENNESSEE

CITY           SKY/WX    TMP DP  RH WIND       PRES   REMARKS
KNOXVILLE      PTCLDY    80  68  66 CALM      30.03R
OAK RIDGE      CLEAR     77  69  76 CALM      30.05R
GATLINBURG     CLEAR     73  66  78 CALM      30.04R
$$

TNZ083-085-099-310400-
SOUTHEAST TENNESSEE

CITY           SKY/WX    TMP DP  RH WIND       PRES   REMARKS
CHATTANOOGA    CLEAR     78  68  71 CALM      30.02R
$$

SKY/WX REPORTED AS FAIR MEANS FEW OR NO CLOUDS BELOW
12 THOUSAND FEET.




USA.gov is the U.S. government's official web portal to all federal, state and local government web resources and services.